Location: Anankanda
(14.7841°N, 3.0348°W)
Time: 01:49:35
(UTC+00:00)

Hubble Space Telescope - Pass Details

Date: 17 January 2021
Orbit: 535 x 539 km, 28.5° (Epoch: 07 March)

Event Time Altitude Azimuth Distance (km) Brightness Sun altitude
Rises 18:29:10 0° 270° (W) 2,672 5.9 -6.7°
Reaches altitude 10° 18:31:42 10° 283° (WNW) 1,782 4.4 -7.3°
Maximum altitude 18:35:13 27° 341° (NNW) 1,056 2.3 -8.1°
Drops below altitude 10° 18:38:44 10° 40° (NE) 1,783 2.9 -8.9°
Enters shadow 18:39:05 - 42° (NE) 1,900 3.0 -8.9°
